This demonstration page uses our WeatherBlox Daily Observations layout. Learn more.

39.29038, -76.61219

Hourly Observations for July 29, 2019

Temp ( °F °C ) Dew Point ( °F °C ) Humidity (%) Winds ( mph kmh ) Pressure ( in mb ) Visibility ( mi km ) Precip ( " mm )
12:54 am 00:54 undefined 81 27.2 70 21.1 69 69 undefined N/A 30.06 1018 N/A 0 0
1:54 am 01:54 undefined 80 26.7 69 20.6 69 69 undefined N/A 30.05 1018 N/A 0 0
2:54 am 02:54 undefined 79 26.1 69 20.6 72 72 undefined N/A 30.04 1017 N/A 0 0
3:54 am 03:54 undefined 79 26.1 68 20 69 69 undefined N/A 30.04 1017 N/A 0 0
4:54 am 04:54 undefined 78 25.6 68 20 71 71 undefined N/A 30.04 1017 N/A 0 0
5:54 am 05:54 undefined 77 25 68 20 74 74 undefined N/A 30.04 1017 N/A 0 0
6:54 am 06:54 undefined 78 25.6 68 20 71 71 undefined N/A 30.05 1018 N/A 0 0
7:54 am 07:54 undefined 82 27.8 67 19.4 60 60 undefined N/A 30.05 1018 N/A 0 0
8:54 am 08:54 undefined 85 29.4 67 19.4 55 55 undefined N/A 30.05 1018 N/A 0 0
9:54 am 09:54 undefined 88 31.1 67 19.4 50 50 undefined N/A 30.04 1017 N/A 0 0
10:54 am 10:54 undefined 90 32.2 66 18.9 45 45 undefined N/A 30.04 1017 N/A 0 0
11:54 am 11:54 undefined 92 33.3 66 18.9 43 43 undefined N/A 30.03 1017 N/A 0 0
12:54 pm 12:54 undefined 92 33.3 65 18.3 41 41 undefined N/A 30.02 1017 N/A 0 0
1:54 pm 13:54 undefined 96 35.6 65 18.3 36 36 undefined N/A 30 1016 N/A 0 0
2:54 pm 14:54 undefined 94 34.4 64 17.8 37 37 undefined N/A 29.99 1016 N/A 0 0
3:54 pm 15:54 undefined 91 32.8 69 20.6 49 49 undefined N/A 29.98 1015 N/A 0 0
4:54 pm 16:54 undefined 90 32.2 69 20.6 50 50 undefined N/A 29.97 1015 N/A 0 0
5:54 pm 17:54 undefined 91 32.8 67 19.4 45 45 undefined N/A 29.95 1014 N/A 0 0
6:54 pm 18:54 undefined 86 30 65 18.3 49 49 undefined N/A 29.97 1015 N/A 0 0
7:54 pm 19:54 undefined 87 30.6 68 20 53 53 undefined N/A 29.98 1015 N/A 0 0
8:54 pm 20:54 undefined 85 29.4 69 20.6 59 59 undefined N/A 29.98 1015 N/A 0 0
9:54 pm 21:54 undefined 85 29.4 72 22.2 65 65 undefined N/A 29.99 1016 N/A 0 0
10:54 pm 22:54 undefined 84 28.9 72 22.2 67 67 undefined N/A 29.99 1016 N/A 0 0
11:54 pm 23:54 undefined 83 28.3 72 22.2 70 70 undefined N/A 29.99 1016 N/A 0 0

Powered by AerisWeather